Погода в Валь-Торансе

Франция     45°17′53″N   6°34′46″E
темп.,
°C
ветер,
м/с
пор.,
м/с
влажн.,
%
обл.,
%
осадки,
мм/ч
давл.,
гПа
погр.,
м
9 декабря, чт
чт901:00−9сз2397100 3.0 1006113
04:00−8сз4598100 2.0 1006243
07:00−9сз3498100 3.6 1008187
10:00−9сз4597100 0.6 1012310
13:00−8сз4492100 1.0 1011609
16:00−11ссз229997 0.2 101352
19:00−16вюв2210093 0.3 101927
22:00−16юв329749 0.0 101920
10 декабря, пт
пт1001:00−15юв4365100 0.0 101522
04:00−9ююв3367100 0.0 100726
07:00−7ююв4570100 2.0 100357
10:00−7ссв1196100 9.1 100495
13:00−5сз4598100 13.6 1000427
16:00−7сз4598100 6.0 1004501
19:00−8зсз4598100 9.3 1007306
22:00−12сз23100100 1.0 101249
11 декабря, сб
сб1101:00−11сз3498100 1.6 101469
04:00−12сз3499100 0.7 101770
07:00−12ссз2398100 1.5 102056
10:00−11ссз3498100 0.4 1022157
13:00−9ссз3492100 0.6 1022542
16:00−11ссз239994 0.1 102539
19:00−14всв1210092 0.1 103038
22:00−16вюв129855 0.0 103317
12 декабря, вс
вс1201:00−16вюв229535 0.0 103315
04:00−15вюв229323 0.0 103414
07:00−14вюв228613 0.0 103413
10:00−7в01765 0.0 102942
13:00−3ссз22686 0.0 1026128
16:00−5с11833 0.0 102813
19:00−9вюв22733 0.0 103212
22:00−7вюв22785 0.0 103013
13 декабря, пн
пн1301:00−7юв22865 0.0 102813
04:00−6юв22864 0.0 102814
07:00−6юв22843 0.0 102714
10:00−1юв21853 0.0 102424
13:00+1в0110062 0.0 102224
16:00−1всв019222 0.0 102420
19:00−5юв22822 0.0 102713
22:00−5юв22761 0.0 102713